{"data":{"norad_id":58323,"intl_designator":"2023-174BV","name":"OBSERVER-1A","alt_names":[],"object_type":"PAYLOAD","status":"ACTIVE","operator":null,"country":"SKOR","launch_date":"2023-11-11","launch_site_code":"AFWTR","launch_vehicle":null,"mission":null,"orbit_class":"UNKNOWN","rcs_meters":null,"size_class":null,"mass_kg":null,"dimensions":null,"purposes":[],"wikipedia_slug":null,"has_3d_model":false,"image_url":null,"decayed_at":null,"tle_current":{"epoch":"2026-05-25T04:48:19.247328Z","epoch_age_seconds":68118,"freshness":"FRESH","line1":"1 58323U 23174BV  26145.20022277  .00009853  00000+0  26513-3 0  9992","line2":"2 58323  97.3939 228.7896 0006923 228.3285 131.7368 15.38052551141678","mean_motion":15.38052551,"eccentricity":0.0006923,"inclination_deg":97.3939,"raan_deg":228.7896,"arg_perigee_deg":228.3285,"mean_anomaly_deg":131.7368,"bstar":0.00026513,"rev_number":14167,"period_min":93.624889413808,"perigee_km":447.14016593429,"apogee_km":456.59699165869,"semimajor_km":6830.0055787965,"source":"CELESTRAK","updated_at":"2026-05-25T13:38:00.677097Z"}}}